Flag for Canada Weather past 2 weeks in Kamloops, British Columbia, Canada

Now
54 °F

Clear.


Feels Like: 53 °F
Forecast: 45 / 75 °F
Wind: 3 mph from South

Location: Kamloops

Current Time: Apr 21, 2015 at 12:28:25 AM

Latest Report: Apr 21, 2015 at 12:00 AM


Visibility: 40 mi

Pressure: 29.79 "Hg

Humidity: 54%

Dew point: 37 °F

Location of KamloopsLocation

Historic Weather in Kamloops — Graph

°F

Kamloops temperature yesterday

Maximum temperature yesterday: 77 °F (at 5:00 PM)
Minimum temperature yesterday: 37 °F (at 6:00 AM)
Average temperature yesterday: 57 °F

Past Weeks' High & Low Weather Summary

 TemperatureHumidityPressure
High77 °F (Apr 20, 5:00 PM)81% (Apr 14, 6:00 AM)30.46 "Hg (Apr 14, 6:00 AM)
Low30 °F (Apr 8, 7:00 AM)14% (Apr 14, 2:00 PM)29.54 "Hg (Apr 11, 2:00 AM)
Average50 °F42%30.02 "Hg
* Reported Apr 5 11:00 PM — Apr 20 11:00 PM, Kamloops, Weather by CustomWeather, © 2015

Note: Actual official high and low records may vary slightly from our data, if they occured in-between our weather recording intervals... More about our weather records

Advertising

Kamloops weather history for previous 24 hours

 ConditionsComfort  
Time TempWeatherWind HumidityBarometerVisibility
11:00 PM
Mon, Apr 20
57 °FPassing clouds.2 mph48%29.78 "Hg40 mi
10:00 PM63 °FPassing clouds.No wind37%29.78 "Hg40 mi
9:00 PM63 °FPassing clouds.2 mph34%29.76 "Hg40 mi
8:00 PM66 °FPassing clouds.8 mph32%29.75 "Hg40 mi
7:00 PM75 °FPassing clouds.5 mph19%29.75 "Hg40 mi
6:00 PM77 °FPleasantly warm.5 mph19%29.77 "Hg40 mi
5:00 PM77 °FPassing clouds.6 mph18%29.78 "Hg40 mi
4:00 PM75 °FPassing clouds.7 mph19%29.80 "Hg40 mi
3:00 PM73 °FScattered clouds.6 mph22%29.84 "Hg40 mi
2:00 PM70 °FPassing clouds.6 mph18%29.88 "Hg40 mi
1:00 PM64 °FPassing clouds.5 mph26%29.91 "Hg40 mi
12:00 PM61 °FPassing clouds.3 mph31%29.96 "Hg40 mi
11:00 AM57 °FPassing clouds.3 mph33%29.98 "Hg40 mi
10:00 AM52 °FScattered clouds.3 mph47%30.02 "Hg40 mi
9:00 AM48 °FScattered clouds.2 mph50%30.05 "Hg40 mi
8:00 AM45 °FPassing clouds.No wind61%30.06 "Hg40 mi
7:00 AM41 °FPassing clouds.2 mph70%30.06 "Hg40 mi
6:00 AM37 °FPassing clouds.No wind70%30.06 "Hg40 mi
5:00 AM41 °FPassing clouds.No wind66%30.05 "Hg40 mi
4:00 AM43 °FPassing clouds.No wind66%30.04 "Hg40 mi
3:00 AM43 °FPassing clouds.3 mph61%30.04 "Hg40 mi
2:00 AM46 °FPassing clouds.No wind57%30.03 "Hg40 mi
1:00 AM48 °FClear.No wind58%30.03 "Hg40 mi
12:00 AM48 °FPassing clouds.No wind54%30.04 "Hg40 mi
Weather by CustomWeather, © 2015

See weather overviewHow to use our weather pages